Home > Weather > Saarlouis > Past weeks

Flag for Germany Past Weather in Saarlouis, Saarland, Germany — Yesterday and Last 2 Weeks

Now
70 °F

Partly sunny.


Feels Like: 70 °F
Forecast: 58 / 70 °F
Wind: 12 mph from West

Location: Saarbruecken / Ensheim

Current Time: Jun 29, 2016 at 6:25:33 PM

Latest Report: Jun 29, 2016 at 5:50 PM


Visibility: N/A

Pressure: 29.95 "Hg

Humidity: 57%

Dew Point: 54 °F

Location of SaarlouisLocation

Past Weather in Saarlouis — Graph

°F

Saarlouis Temperature Yesterday

Maximum temperature yesterday: 68 °F (at 3:50 PM)
Minimum temperature yesterday: 59 °F (at 3:20 AM)
Average temperature yesterday: 62 °F

High & Low Weather Summary for the Past Weeks

 TemperatureHumidityPressure
High90 °F (Jun 23, 3:50 PM)100% (Jun 15, 12:50 AM)30.27 "Hg (Jun 15, 12:50 AM)
Low45 °F (Jun 20, 4:20 AM)41% (Jun 23, 4:20 PM)29.53 "Hg (Jun 15, 5:20 AM)
Average62 °F81%30.01 "Hg
* Reported Jun 14 5:20 PM — Jun 29 5:20 PM, Saarlouis, Weather by CustomWeather, © 2016

Note: Actual official high and low records may vary slightly from our data, if they occured in-between our weather recording intervals... More about our weather records

Advertising

Saarlouis Weather History for the Previous 24 Hours

Scroll right to see more
 ConditionsComfort  
Time TempWeatherWind HumidityBarometerVisibility
5:20 PM
Wed, Jun 29
72 °FPartly sunny.13 mph53%29.95 "HgN/A
4:50 PM70 °FBroken clouds.12 mph53%29.95 "HgN/A
4:20 PM70 °FBroken clouds.12 mph57%29.95 "HgN/A
3:50 PM72 °FBroken clouds.13 mph53%29.98 "HgN/A
3:20 PM70 °FBroken clouds.10 mph53%29.98 "HgN/A
2:50 PM70 °FScattered clouds.12 mph53%29.98 "HgN/A
2:20 PM68 °FScattered clouds.14 mph60%29.98 "HgN/A
1:50 PM70 °FScattered clouds.12 mph60%29.98 "HgN/A
1:20 PM66 °FScattered clouds.12 mph68%30.01 "HgN/A
12:50 PM68 °FScattered clouds.13 mph64%30.01 "HgN/A
12:20 PM66 °FScattered clouds.13 mph68%30.01 "HgN/A
11:50 AM64 °FPartly sunny.10 mph73%30.01 "HgN/A
11:20 AM64 °FBroken clouds.12 mph78%30.01 "HgN/A
10:20 AM61 °FBroken clouds.10 mph83%30.01 "HgN/A
9:50 AM59 °FLight rain. Broken clouds.8 mph88%30.01 "HgN/A
9:20 AM61 °FBroken clouds.9 mph83%30.01 "HgN/A
8:50 AM61 °FPartly sunny.12 mph83%29.98 "HgN/A
8:20 AM61 °FPartly sunny.10 mph88%29.98 "HgN/A
7:50 AM61 °FPartly sunny.10 mph88%29.98 "HgN/A
7:20 AM61 °FPartly sunny.10 mph88%29.98 "HgN/A
6:50 AM61 °FBroken clouds.9 mph88%29.98 "HgN/A
6:20 AM61 °FPassing clouds.9 mph88%29.95 "HgN/A
5:50 AM61 °FPartly cloudy.12 mph88%29.95 "HgN/A
5:20 AM61 °FPartly cloudy.10 mph88%29.95 "HgN/A
4:50 AM61 °FPartly cloudy.9 mph94%29.95 "HgN/A
4:20 AM61 °FSprinkles. Partly cloudy.8 mph94%29.95 "HgN/A
3:50 AM61 °FPassing clouds.7 mph94%29.95 "HgN/A
3:20 AM61 °FClear.8 mph94%29.95 "Hg10 mi
2:50 AM61 °FPassing clouds.7 mph94%29.95 "HgN/A
2:20 AM61 °FPassing clouds.8 mph94%29.95 "HgN/A
1:50 AM63 °FPassing clouds.7 mph88%29.95 "HgN/A
1:20 AM61 °FClear.8 mph94%29.95 "Hg10 mi
12:50 AM63 °FClear.9 mph88%29.95 "Hg10 mi
12:20 AM63 °FClear.7 mph88%29.98 "Hg10 mi
11:50 PM
Tue, Jun 28
63 °FClear.7 mph88%29.98 "Hg10 mi
11:20 PM63 °FPassing clouds.7 mph88%29.98 "HgN/A
10:50 PM63 °FPartly cloudy.7 mph88%29.98 "HgN/A
10:20 PM63 °FBroken clouds.6 mph88%29.98 "HgN/A
9:50 PM63 °FBroken clouds.5 mph88%29.98 "HgN/A
9:20 PM63 °FBroken clouds.3 mph88%29.98 "HgN/A
8:50 PM63 °FScattered clouds.5 mph88%29.98 "HgN/A
8:20 PM63 °FPartly sunny.3 mph88%29.98 "HgN/A
7:50 PM63 °FBroken clouds.5 mph88%30.01 "HgN/A
7:20 PM63 °FPartly sunny.5 mph83%30.01 "HgN/A
6:50 PM63 °FBroken clouds.6 mph88%30.01 "HgN/A
6:20 PM63 °FBroken clouds.3 mph83%30.04 "HgN/A
Weather by CustomWeather, © 2016

See weather overviewHow to use our weather pages